Time,TemperatureF,DewpointF,PressureIn,WindDirection,WindDirectionDegrees,WindSpeedMPH,WindSpeedGustMPH,Humidity,HourlyPrecipIn,Conditions,Clouds,dailyrainin,SoftwareType,DateUTC
2013-03-25 00:00:00,33.8,32.3,29.68,East,95,0.0,4.0,94,0.03,,---,0.04,VWS V14.01,2013-03-25 04:00:00,
2013-03-25 00:05:00,33.9,32.4,29.68,SE,143,2.0,2.0,94,0.02,,---,0.00,VWS V14.01,2013-03-25 04:05:00,
2013-03-25 00:10:00,33.8,32.3,29.68,SE,126,0.0,3.0,94,0.02,,---,0.00,VWS V14.01,2013-03-25 04:10:00,
2013-03-25 00:15:00,33.9,32.4,29.68,SE,125,0.0,3.0,94,0.02,,---,0.00,VWS V14.01,2013-03-25 04:15:00,
2013-03-25 00:20:00,33.9,32.4,29.68,SE,126,0.0,3.0,94,0.02,,---,0.00,VWS V14.01,2013-03-25 04:20:00,
2013-03-25 00:25:00,34.0,32.5,29.67,ESE,122,0.0,3.0,94,0.02,,---,0.00,VWS V14.01,2013-03-25 04:25:00,
2013-03-25 00:30:00,34.0,32.5,29.67,NNW,337,0.0,3.0,94,0.02,,---,0.00,VWS V14.01,2013-03-25 04:30:00,
2013-03-25 00:35:00,33.9,32.4,29.67,ESE,108,1.0,3.0,94,0.01,,---,0.00,VWS V14.01,2013-03-25 04:35:00,
2013-03-25 00:40:00,34.0,32.5,29.66,ENE,72,1.0,3.0,94,0.01,,---,0.00,VWS V14.01,2013-03-25 04:40:00,
2013-03-25 00:45:00,33.9,32.4,29.65,SE,130,1.0,3.0,94,0.01,,---,0.00,VWS V14.01,2013-03-25 04:45:00,
2013-03-25 00:50:00,34.0,32.5,29.65,ESE,116,0.0,3.0,94,0.01,,---,0.00,VWS V14.01,2013-03-25 04:50:00,
2013-03-25 00:55:00,34.0,32.5,29.65,SE,139,0.0,3.0,94,0.02,,---,0.01,VWS V14.01,2013-03-25 04:55:00,
2013-03-25 01:00:00,33.9,32.4,29.65,ESE,113,1.0,3.0,94,0.02,,---,0.01,VWS V14.01,2013-03-25 05:00:00,
2013-03-25 01:05:00,34.0,32.5,29.64,SE,129,0.0,1.0,94,0.01,,---,0.01,VWS V14.01,2013-03-25 05:05:00,
2013-03-25 01:10:00,34.0,32.2,29.64,ESE,112,0.0,3.0,93,0.01,,---,0.01,VWS V14.01,2013-03-25 05:10:00,
2013-03-25 01:15:00,34.0,32.2,29.64,SE,134,0.0,3.0,93,0.01,,---,0.01,VWS V14.01,2013-03-25 05:15:00,
2013-03-25 01:20:00,34.0,32.2,29.64,SE,134,0.0,3.0,93,0.01,,---,0.01,VWS V14.01,2013-03-25 05:20:00,
2013-03-25 01:25:00,34.0,32.2,29.64,SE,133,0.0,4.0,93,0.01,,---,0.01,VWS V14.01,2013-03-25 05:25:00,
2013-03-25 01:30:00,34.0,32.2,29.64,ESE,104,0.0,4.0,93,0.01,,---,0.01,VWS V14.01,2013-03-25 05:30:00,
2013-03-25 01:35:00,34.1,32.3,29.64,ESE,113,0.0,1.0,93,0.01,,---,0.01,VWS V14.01,2013-03-25 05:35:00,
2013-03-25 01:40:00,34.1,32.3,29.64,ESE,123,0.0,4.0,93,0.01,,---,0.01,VWS V14.01,2013-03-25 05:40:00,
2013-03-25 01:45:00,34.0,32.2,29.64,ESE,113,1.0,4.0,93,0.01,,---,0.01,VWS V14.01,2013-03-25 05:45:00,
2013-03-25 01:50:00,34.0,32.2,29.63,SE,130,0.0,4.0,93,0.01,,---,0.01,VWS V14.01,2013-03-25 05:50:00,
2013-03-25 01:55:00,34.1,32.3,29.62,SSE,157,0.0,4.0,93,0.01,,---,0.01,VWS V14.01,2013-03-25 05:55:00,
2013-03-25 02:00:00,34.0,32.2,29.62,ESE,120,1.0,4.0,93,0.01,,---,0.01,VWS V14.01,2013-03-25 06:00:00,
2013-03-25 02:05:00,34.1,32.0,29.62,ESE,120,0.0,0.0,92,0.00,,---,0.01,VWS V14.01,2013-03-25 06:05:00,
2013-03-25 02:10:00,34.0,31.9,29.62,East,91,0.0,1.0,92,0.00,,---,0.01,VWS V14.01,2013-03-25 06:10:00,
2013-03-25 02:15:00,34.0,31.9,29.61,ESE,108,0.0,1.0,92,0.00,,---,0.01,VWS V14.01,2013-03-25 06:15:00,
2013-03-25 02:20:00,33.9,31.8,29.61,ESE,118,0.0,1.0,92,0.00,,---,0.01,VWS V14.01,2013-03-25 06:20:00,
2013-03-25 02:25:00,33.9,31.8,29.61,ESE,120,0.0,1.0,92,0.00,,---,0.01,VWS V14.01,2013-03-25 06:25:00,
2013-03-25 02:30:00,33.9,31.8,29.60,ESE,120,0.0,1.0,92,0.00,,---,0.01,VWS V14.01,2013-03-25 06:30:00,
2013-03-25 02:35:00,33.8,31.7,29.60,East,86,0.0,1.0,92,0.00,,---,0.01,VWS V14.01,2013-03-25 06:35:00,
2013-03-25 02:40:00,33.6,31.5,29.60,ESE,123,0.0,1.0,92,0.00,,---,0.01,VWS V14.01,2013-03-25 06:40:00,
2013-03-25 02:45:00,33.5,31.4,29.60,ESE,122,0.0,1.0,92,0.00,,---,0.01,VWS V14.01,2013-03-25 06:45:00,
2013-03-25 02:50:00,33.5,31.4,29.60,ESE,122,0.0,1.0,92,0.00,,---,0.01,VWS V14.01,2013-03-25 06:50:00,
2013-03-25 02:55:00,33.5,31.7,29.60,ESE,123,0.0,1.0,93,0.00,,---,0.01,VWS V14.01,2013-03-25 06:55:00,
2013-03-25 03:00:00,33.5,31.7,29.60,ESE,122,0.0,1.0,93,0.00,,---,0.01,VWS V14.01,2013-03-25 07:00:00,
2013-03-25 03:05:00,33.4,31.6,29.60,SE,129,0.0,1.0,93,0.00,,---,0.01,VWS V14.01,2013-03-25 07:05:00,
2013-03-25 03:10:00,33.4,31.6,29.59,SE,130,0.0,1.0,93,0.00,,---,0.01,VWS V14.01,2013-03-25 07:10:00,
2013-03-25 03:15:00,33.4,31.6,29.59,SE,129,0.0,1.0,93,0.00,,---,0.01,VWS V14.01,2013-03-25 07:15:00,
2013-03-25 03:20:00,33.3,31.5,29.59,SE,128,0.0,1.0,93,0.00,,---,0.01,VWS V14.01,2013-03-25 07:20:00,
2013-03-25 03:25:00,33.2,31.4,29.59,SE,128,0.0,1.0,93,0.00,,---,0.01,VWS V14.01,2013-03-25 07:25:00,
2013-03-25 03:30:00,33.2,31.4,29.60,SE,128,0.0,1.0,93,0.00,,---,0.01,VWS V14.01,2013-03-25 07:30:00,
2013-03-25 03:35:00,33.2,31.4,29.60,SE,146,0.0,0.0,93,0.00,,---,0.01,VWS V14.01,2013-03-25 07:35:00,
2013-03-25 03:40:00,33.1,31.3,29.61,NW,308,0.0,0.0,93,0.00,,---,0.01,VWS V14.01,2013-03-25 07:40:00,
2013-03-25 03:45:00,33.0,31.2,29.61,NW,308,0.0,0.0,93,0.00,,---,0.01,VWS V14.01,2013-03-25 07:45:00,
2013-03-25 03:50:00,32.9,31.1,29.62,NW,308,0.0,0.0,93,0.00,,---,0.01,VWS V14.01,2013-03-25 07:50:00,
2013-03-25 03:55:00,32.8,31.3,29.62,WNW,284,0.0,0.0,94,0.00,,---,0.01,VWS V14.01,2013-03-25 07:55:00,
2013-03-25 04:00:00,32.7,31.2,29.62,West,259,0.0,1.0,94,0.00,,---,0.01,VWS V14.01,2013-03-25 08:00:00,
2013-03-25 04:05:00,32.7,31.2,29.63,West,259,0.0,1.0,94,0.00,,---,0.01,VWS V14.01,2013-03-25 08:05:00,
2013-03-25 04:10:00,32.7,31.2,29.63,West,259,0.0,1.0,94,0.00,,---,0.01,VWS V14.01,2013-03-25 08:10:00,
2013-03-25 04:15:00,32.7,31.2,29.63,West,267,0.0,1.0,94,0.00,,---,0.01,VWS V14.01,2013-03-25 08:15:00,
2013-03-25 04:20:00,32.6,31.1,29.63,NE,48,0.0,1.0,94,0.00,,---,0.01,VWS V14.01,2013-03-25 08:20:00,
2013-03-25 04:25:00,32.6,31.1,29.62,NE,36,0.0,1.0,94,0.00,,---,0.01,VWS V14.01,2013-03-25 08:25:00,
2013-03-25 04:30:00,32.6,31.1,29.62,NE,36,0.0,1.0,94,0.00,,---,0.01,VWS V14.01,2013-03-25 08:30:00,
2013-03-25 04:35:00,32.6,31.1,29.62,NNE,21,0.0,0.0,94,0.00,,---,0.01,VWS V14.01,2013-03-25 08:35:00,
2013-03-25 04:40:00,32.6,31.1,29.61,NNE,21,0.0,0.0,94,0.00,,---,0.01,VWS V14.01,2013-03-25 08:40:00,
2013-03-25 04:45:00,32.6,31.1,29.61,NNW,333,0.0,1.0,94,0.00,,---,0.01,VWS V14.01,2013-03-25 08:45:00,
2013-03-25 04:50:00,32.6,31.1,29.61,WNW,295,0.0,1.0,94,0.00,,---,0.01,VWS V14.01,2013-03-25 08:50:00,
2013-03-25 04:55:00,32.6,31.1,29.61,WNW,295,0.0,1.0,94,0.00,,---,0.01,VWS V14.01,2013-03-25 08:55:00,
2013-03-25 05:00:00,32.6,31.3,29.61,West,276,0.0,1.0,95,0.00,,---,0.01,VWS V14.01,2013-03-25 09:00:00,
2013-03-25 05:05:00,32.6,31.3,29.61,NNE,23,0.0,0.0,95,0.00,,---,0.01,VWS V14.01,2013-03-25 09:05:00,
2013-03-25 05:10:00,32.6,31.3,29.60,WNW,295,0.0,0.0,95,0.00,,---,0.01,VWS V14.01,2013-03-25 09:10:00,
2013-03-25 05:15:00,32.5,31.2,29.60,NW,307,0.0,1.0,95,0.00,,---,0.01,VWS V14.01,2013-03-25 09:15:00,
2013-03-25 05:20:00,32.5,31.2,29.60,NW,306,0.0,1.0,95,0.00,,---,0.01,VWS V14.01,2013-03-25 09:20:00,
2013-03-25 05:25:00,32.5,31.2,29.60,North,356,0.0,1.0,95,0.00,,---,0.01,VWS V14.01,2013-03-25 09:25:00,
2013-03-25 05:30:00,32.5,31.2,29.60,West,278,0.0,1.0,95,0.00,,---,0.01,VWS V14.01,2013-03-25 09:30:00,
2013-03-25 05:35:00,32.5,31.2,29.59,North,351,0.0,0.0,95,0.00,,---,0.01,VWS V14.01,2013-03-25 09:35:00,
2013-03-25 05:40:00,32.5,31.2,29.59,North,351,0.0,0.0,95,0.00,,---,0.01,VWS V14.01,2013-03-25 09:40:00,
2013-03-25 05:45:00,32.5,31.2,29.59,North,351,0.0,0.0,95,0.00,,---,0.01,VWS V14.01,2013-03-25 09:45:00,
2013-03-25 05:50:00,32.5,31.2,29.59,NNW,348,0.0,0.0,95,0.00,,---,0.01,VWS V14.01,2013-03-25 09:50:00,
2013-03-25 05:55:00,32.5,31.2,29.59,NNW,340,0.0,0.0,95,0.00,,---,0.01,VWS V14.01,2013-03-25 09:55:00,
2013-03-25 06:00:00,32.5,31.2,29.59,NNW,341,0.0,0.0,95,0.00,,---,0.01,VWS V14.01,2013-03-25 10:00:00,
2013-03-25 06:05:00,32.5,31.2,29.59,NNW,342,0.0,0.0,95,0.00,,---,0.01,VWS V14.01,2013-03-25 10:05:00,
2013-03-25 06:10:00,32.5,31.2,29.59,WNW,295,0.0,1.0,95,0.00,,---,0.01,VWS V14.01,2013-03-25 10:10:00,
2013-03-25 06:15:00,32.5,31.2,29.59,WNW,295,0.0,1.0,95,0.00,,---,0.01,VWS V14.01,2013-03-25 10:15:00,
2013-03-25 06:20:00,32.5,31.2,29.59,WNW,301,0.0,1.0,95,0.00,,---,0.01,VWS V14.01,2013-03-25 10:20:00,
2013-03-25 06:25:00,32.5,31.2,29.58,WNW,301,0.0,1.0,95,0.00,,---,0.01,VWS V14.01,2013-03-25 10:25:00,
2013-03-25 06:30:00,32.5,31.2,29.58,North,9,0.0,1.0,95,0.00,,---,0.01,VWS V14.01,2013-03-25 10:30:00,
2013-03-25 06:35:00,32.5,31.2,29.58,North,9,0.0,0.0,95,0.00,,---,0.01,VWS V14.01,2013-03-25 10:35:00,
2013-03-25 06:40:00,32.5,31.2,29.58,North,9,0.0,0.0,95,0.00,,---,0.01,VWS V14.01,2013-03-25 10:40:00,
2013-03-25 06:45:00,32.6,31.3,29.58,North,9,0.0,0.0,95,0.00,,---,0.01,VWS V14.01,2013-03-25 10:45:00,
2013-03-25 06:50:00,32.5,31.2,29.58,North,9,0.0,0.0,95,0.00,,---,0.01,VWS V14.01,2013-03-25 10:50:00,
2013-03-25 06:55:00,32.5,31.2,29.58,NNE,22,0.0,0.0,95,0.00,,---,0.01,VWS V14.01,2013-03-25 10:55:00,
2013-03-25 07:00:00,32.6,31.3,29.57,NNE,21,0.0,0.0,95,0.00,,---,0.01,VWS V14.01,2013-03-25 11:00:00,
2013-03-25 07:05:00,32.6,31.3,29.57,NNE,19,0.0,0.0,95,0.00,,---,0.01,VWS V14.01,2013-03-25 11:05:00,
2013-03-25 07:10:00,32.6,31.3,29.57,NNE,19,0.0,0.0,95,0.00,,---,0.01,VWS V14.01,2013-03-25 11:10:00,
2013-03-25 07:15:00,32.5,31.2,29.57,ENE,70,0.0,0.0,95,0.00,,---,0.01,VWS V14.01,2013-03-25 11:15:00,
2013-03-25 07:20:00,32.6,31.3,29.57,ENE,70,0.0,0.0,95,0.00,,---,0.01,VWS V14.01,2013-03-25 11:20:00,
2013-03-25 07:25:00,32.6,31.3,29.57,ENE,65,0.0,0.0,95,0.00,,---,0.01,VWS V14.01,2013-03-25 11:25:00,
2013-03-25 07:30:00,32.6,31.3,29.57,ENE,65,0.0,0.0,95,0.00,,---,0.01,VWS V14.01,2013-03-25 11:30:00,
2013-03-25 07:35:00,32.7,31.4,29.57,ENE,65,0.0,0.0,95,0.00,,---,0.01,VWS V14.01,2013-03-25 11:35:00,
2013-03-25 07:40:00,32.7,31.4,29.57,SSE,156,0.0,0.0,95,0.00,,---,0.01,VWS V14.01,2013-03-25 11:40:00,
2013-03-25 07:45:00,32.7,31.4,29.57,SSE,156,0.0,0.0,95,0.00,,---,0.01,VWS V14.01,2013-03-25 11:45:00,
2013-03-25 07:50:00,32.8,31.5,29.57,SSE,156,0.0,0.0,95,0.00,,---,0.01,VWS V14.01,2013-03-25 11:50:00,
2013-03-25 07:55:00,32.8,31.5,29.57,SSE,156,0.0,0.0,95,0.00,,---,0.01,VWS V14.01,2013-03-25 11:55:00,
2013-03-25 08:00:00,32.9,31.6,29.57,SSE,157,0.0,0.0,95,0.00,,---,0.01,VWS V14.01,2013-03-25 12:00:00,
2013-03-25 08:05:00,32.9,31.6,29.57,SSE,157,0.0,0.0,95,0.00,,---,0.01,VWS V14.01,2013-03-25 12:05:00,
2013-03-25 08:10:00,32.8,31.5,29.57,NW,310,0.0,0.0,95,0.00,,---,0.01,VWS V14.01,2013-03-25 12:10:00,
2013-03-25 08:15:00,32.9,31.6,29.57,NW,311,0.0,0.0,95,0.00,,---,0.01,VWS V14.01,2013-03-25 12:15:00,
2013-03-25 08:20:00,32.9,31.6,29.57,NNW,337,0.0,1.0,95,0.00,,---,0.01,VWS V14.01,2013-03-25 12:20:00,
2013-03-25 08:25:00,32.9,31.6,29.57,NNW,338,0.0,1.0,95,0.00,,---,0.01,VWS V14.01,2013-03-25 12:25:00,
2013-03-25 08:30:00,32.9,31.6,29.57,NNW,343,0.0,1.0,95,0.00,,---,0.01,VWS V14.01,2013-03-25 12:30:00,
2013-03-25 08:35:00,32.9,31.6,29.57,NNW,335,0.0,0.0,95,0.00,,---,0.01,VWS V14.01,2013-03-25 12:35:00,
2013-03-25 08:40:00,33.0,31.7,29.56,NNW,335,0.0,0.0,95,0.00,,---,0.01,VWS V14.01,2013-03-25 12:40:00,
2013-03-25 08:45:00,33.1,31.8,29.57,West,262,0.0,0.0,95,0.00,,---,0.01,VWS V14.01,2013-03-25 12:45:00,
2013-03-25 08:50:00,33.2,31.9,29.56,SW,232,0.0,0.0,95,0.00,,---,0.01,VWS V14.01,2013-03-25 12:50:00,
2013-03-25 08:55:00,33.3,32.0,29.56,SW,231,0.0,0.0,95,0.00,,---,0.01,VWS V14.01,2013-03-25 12:55:00,
2013-03-25 09:00:00,33.4,32.1,29.56,WSW,249,0.0,0.0,95,0.00,,---,0.01,VWS V14.01,2013-03-25 13:00:00,
2013-03-25 09:05:00,33.5,32.2,29.56,WNW,288,0.0,0.0,95,0.00,,---,0.01,VWS V14.01,2013-03-25 13:05:00,
2013-03-25 09:10:00,33.6,32.3,29.56,ESE,117,0.0,2.0,95,0.00,,---,0.01,VWS V14.01,2013-03-25 13:10:00,
2013-03-25 09:15:00,33.7,32.4,29.56,ESE,117,0.0,2.0,95,0.00,,---,0.01,VWS V14.01,2013-03-25 13:15:00,
2013-03-25 09:20:00,33.9,32.6,29.56,ESE,116,0.0,2.0,95,0.00,,---,0.01,VWS V14.01,2013-03-25 13:20:00,
2013-03-25 09:25:00,34.0,32.7,29.56,ESE,119,0.0,2.0,95,0.00,,---,0.01,VWS V14.01,2013-03-25 13:25:00,
2013-03-25 09:30:00,34.1,32.8,29.55,ESE,104,1.0,2.0,95,0.00,,---,0.01,VWS V14.01,2013-03-25 13:30:00,
2013-03-25 09:35:00,34.1,32.8,29.55,SSE,162,0.0,3.0,95,0.00,,---,0.01,VWS V14.01,2013-03-25 13:35:00,
2013-03-25 09:40:00,34.1,32.6,29.55,West,263,0.0,3.0,94,0.00,,---,0.01,VWS V14.01,2013-03-25 13:40:00,
2013-03-25 09:45:00,34.3,32.8,29.55,SSW,209,0.0,3.0,94,0.00,,---,0.01,VWS V14.01,2013-03-25 13:45:00,
2013-03-25 09:50:00,34.4,32.9,29.55,ENE,60,0.0,3.0,94,0.00,,---,0.01,VWS V14.01,2013-03-25 13:50:00,
2013-03-25 09:55:00,34.5,33.0,29.55,ENE,75,0.0,3.0,94,0.00,,---,0.01,VWS V14.01,2013-03-25 13:55:00,
2013-03-25 10:00:00,34.6,33.0,29.55,NW,321,2.0,3.0,94,0.00,,---,0.01,VWS V14.01,2013-03-25 14:00:00,
2013-03-25 10:05:00,34.6,32.8,29.55,North,11,0.0,3.0,93,0.00,,---,0.01,VWS V14.01,2013-03-25 14:05:00,
2013-03-25 10:10:00,34.6,32.8,29.55,North,359,0.0,4.0,93,0.00,,---,0.01,VWS V14.01,2013-03-25 14:10:00,
2013-03-25 10:15:00,34.5,32.7,29.55,NNE,26,0.0,4.0,93,0.00,,---,0.01,VWS V14.01,2013-03-25 14:15:00,
2013-03-25 10:20:00,34.7,32.9,29.56,SW,217,1.0,4.0,93,0.00,,---,0.01,VWS V14.01,2013-03-25 14:20:00,
2013-03-25 10:25:00,34.7,32.9,29.56,NNW,329,2.0,4.0,93,0.00,,---,0.01,VWS V14.01,2013-03-25 14:25:00,
2013-03-25 10:30:00,34.7,32.9,29.56,SE,143,2.0,4.0,93,0.00,,---,0.01,VWS V14.01,2013-03-25 14:30:00,
2013-03-25 10:35:00,34.7,32.9,29.56,ENE,74,0.0,0.0,93,0.00,,---,0.01,VWS V14.01,2013-03-25 14:35:00,
2013-03-25 10:40:00,35.0,33.2,29.56,ENE,73,0.0,0.0,93,0.00,,---,0.01,VWS V14.01,2013-03-25 14:40:00,
2013-03-25 10:45:00,35.1,33.3,29.56,WNW,287,0.0,1.0,93,0.00,,---,0.01,VWS V14.01,2013-03-25 14:45:00,
2013-03-25 10:50:00,35.2,33.4,29.56,NW,314,0.0,1.0,93,0.00,,---,0.01,VWS V14.01,2013-03-25 14:50:00,
2013-03-25 10:55:00,35.4,33.6,29.56,NW,311,0.0,1.0,93,0.00,,---,0.01,VWS V14.01,2013-03-25 14:55:00,
2013-03-25 11:00:00,35.3,33.2,29.56,West,259,0.0,1.0,92,0.00,,---,0.01,VWS V14.01,2013-03-25 15:00:00,
2013-03-25 11:05:00,35.2,33.1,29.56,West,259,0.0,0.0,92,0.00,,---,0.01,VWS V14.01,2013-03-25 15:05:00,
2013-03-25 11:10:00,35.2,33.1,29.56,West,277,0.0,1.0,92,0.00,,---,0.01,VWS V14.01,2013-03-25 15:10:00,
2013-03-25 11:15:00,35.1,33.0,29.56,WSW,256,0.0,1.0,92,0.00,,---,0.01,VWS V14.01,2013-03-25 15:15:00,
2013-03-25 11:20:00,35.0,32.9,29.57,WNW,295,0.0,1.0,92,0.00,,---,0.01,VWS V14.01,2013-03-25 15:20:00,
2013-03-25 11:25:00,34.9,32.8,29.56,WNW,287,1.0,2.0,92,0.00,,---,0.01,VWS V14.01,2013-03-25 15:25:00,
2013-03-25 11:30:00,34.9,33.1,29.56,WNW,286,0.0,2.0,93,0.01,,---,0.02,VWS V14.01,2013-03-25 15:30:00,
2013-03-25 11:35:00,34.9,33.1,29.56,West,271,0.0,1.0,93,0.01,,---,0.02,VWS V14.01,2013-03-25 15:35:00,
2013-03-25 11:40:00,34.9,33.1,29.56,West,265,0.0,1.0,93,0.01,,---,0.02,VWS V14.01,2013-03-25 15:40:00,
2013-03-25 11:45:00,35.0,33.2,29.57,SW,215,0.0,1.0,93,0.01,,---,0.02,VWS V14.01,2013-03-25 15:45:00,
2013-03-25 11:50:00,34.9,33.1,29.57,West,281,0.0,2.0,93,0.01,,---,0.02,VWS V14.01,2013-03-25 15:50:00,
2013-03-25 11:55:00,34.9,33.1,29.57,WSW,243,0.0,2.0,93,0.02,,---,0.03,VWS V14.01,2013-03-25 15:55:00,
2013-03-25 12:00:00,35.2,33.7,29.57,West,264,0.0,2.0,94,0.02,,---,0.03,VWS V14.01,2013-03-25 16:00:00,
2013-03-25 12:05:00,35.2,33.4,29.57,North,1,1.0,3.0,93,0.02,,---,0.03,VWS V14.01,2013-03-25 16:05:00,
2013-03-25 12:10:00,35.2,33.4,29.57,NE,46,1.0,3.0,93,0.03,,---,0.04,VWS V14.01,2013-03-25 16:10:00,
2013-03-25 12:15:00,35.2,33.4,29.57,WNW,293,1.0,3.0,93,0.03,,---,0.04,VWS V14.01,2013-03-25 16:15:00,
2013-03-25 12:20:00,35.3,33.5,29.57,North,359,1.0,4.0,93,0.03,,---,0.04,VWS V14.01,2013-03-25 16:20:00,
2013-03-25 12:25:00,35.3,33.5,29.57,NW,321,1.0,4.0,93,0.03,,---,0.04,VWS V14.01,2013-03-25 16:25:00,
2013-03-25 12:30:00,35.4,33.6,29.57,NNE,23,0.0,4.0,93,0.04,,---,0.05,VWS V14.01,2013-03-25 16:30:00,
2013-03-25 12:35:00,35.5,33.7,29.57,WNW,283,1.0,1.0,93,0.03,,---,0.05,VWS V14.01,2013-03-25 16:35:00,
2013-03-25 12:40:00,35.6,33.8,29.56,North,11,0.0,2.0,93,0.03,,---,0.05,VWS V14.01,2013-03-25 16:40:00,
2013-03-25 12:45:00,35.7,33.9,29.57,West,281,0.0,2.0,93,0.04,,---,0.06,VWS V14.01,2013-03-25 16:45:00,
2013-03-25 12:50:00,35.7,33.9,29.57,West,269,1.0,2.0,93,0.04,,---,0.06,VWS V14.01,2013-03-25 16:50:00,
2013-03-25 12:55:00,35.8,33.7,29.57,WSW,243,0.0,2.0,92,0.05,,---,0.07,VWS V14.01,2013-03-25 16:55:00,
2013-03-25 13:00:00,36.0,34.2,29.56,North,351,0.0,3.0,93,0.06,,---,0.08,VWS V14.01,2013-03-25 17:00:00,
2013-03-25 13:05:00,36.4,34.6,29.56,West,275,1.0,2.0,93,0.06,,---,0.09,VWS V14.01,2013-03-25 17:05:00,
2013-03-25 13:10:00,36.6,34.8,29.56,WNW,285,0.0,2.0,93,0.07,,---,0.10,VWS V14.01,2013-03-25 17:10:00,
2013-03-25 13:15:00,36.8,34.7,29.56,NNW,329,0.0,3.0,92,0.08,,---,0.11,VWS V14.01,2013-03-25 17:15:00,
2013-03-25 13:20:00,37.1,35.0,29.57,NE,40,0.0,3.0,92,0.09,,---,0.12,VWS V14.01,2013-03-25 17:20:00,
2013-03-25 13:25:00,37.1,35.0,29.57,WSW,246,0.0,3.0,92,0.10,,---,0.13,VWS V14.01,2013-03-25 17:25:00,
2013-03-25 13:30:00,37.0,34.6,29.57,NE,37,0.0,3.0,91,0.11,,---,0.14,VWS V14.01,2013-03-25 17:30:00,
2013-03-25 13:35:00,36.9,34.5,29.57,ENE,76,0.0,5.0,91,0.10,,---,0.15,VWS V14.01,2013-03-25 17:35:00,
2013-03-25 13:40:00,37.0,34.6,29.57,NW,310,0.0,5.0,91,0.12,,---,0.17,VWS V14.01,2013-03-25 17:40:00,
2013-03-25 13:45:00,37.0,34.6,29.57,West,280,0.0,5.0,91,0.13,,---,0.18,VWS V14.01,2013-03-25 17:45:00,
2013-03-25 13:50:00,36.9,34.2,29.56,NW,325,0.0,5.0,90,0.14,,---,0.19,VWS V14.01,2013-03-25 17:50:00,
2013-03-25 13:55:00,37.1,34.7,29.56,WNW,297,0.0,5.0,91,0.15,,---,0.20,VWS V14.01,2013-03-25 17:55:00,
2013-03-25 14:00:00,37.1,34.7,29.56,WSW,257,2.0,5.0,91,0.16,,---,0.21,VWS V14.01,2013-03-25 18:00:00,
2013-03-25 14:05:00,36.9,34.2,29.56,SSW,195,1.0,5.0,90,0.13,,---,0.22,VWS V14.01,2013-03-25 18:05:00,
2013-03-25 14:10:00,37.1,34.7,29.56,West,275,0.0,5.0,91,0.14,,---,0.23,VWS V14.01,2013-03-25 18:10:00,
2013-03-25 14:15:00,37.2,34.8,29.56,North,350,0.0,5.0,91,0.15,,---,0.24,VWS V14.01,2013-03-25 18:15:00,
2013-03-25 14:20:00,37.2,34.8,29.56,NNW,348,0.0,5.0,91,0.16,,---,0.25,VWS V14.01,2013-03-25 18:20:00,
2013-03-25 14:25:00,37.2,34.8,29.56,WNW,295,0.0,5.0,91,0.17,,---,0.26,VWS V14.01,2013-03-25 18:25:00,
2013-03-25 14:30:00,37.1,34.7,29.56,West,262,1.0,5.0,91,0.18,,---,0.27,VWS V14.01,2013-03-25 18:30:00,
2013-03-25 14:35:00,36.9,34.2,29.56,WNW,297,1.0,4.0,90,0.14,,---,0.28,VWS V14.01,2013-03-25 18:35:00,
2013-03-25 14:40:00,36.9,34.5,29.56,West,274,0.0,4.0,91,0.15,,---,0.29,VWS V14.01,2013-03-25 18:40:00,
2013-03-25 14:45:00,37.0,34.6,29.56,NNW,340,0.0,4.0,91,0.16,,---,0.30,VWS V14.01,2013-03-25 18:45:00,
2013-03-25 14:50:00,37.1,34.7,29.56,West,267,1.0,5.0,91,0.16,,---,0.30,VWS V14.01,2013-03-25 18:50:00,
2013-03-25 14:55:00,37.0,34.6,29.56,WSW,245,1.0,5.0,91,0.17,,---,0.31,VWS V14.01,2013-03-25 18:55:00,
2013-03-25 15:00:00,36.9,34.5,29.56,West,259,0.0,5.0,91,0.18,,---,0.32,VWS V14.01,2013-03-25 19:00:00,
2013-03-25 15:05:00,36.9,34.5,29.56,WNW,287,0.0,2.0,91,0.12,,---,0.33,VWS V14.01,2013-03-25 19:05:00,
2013-03-25 15:10:00,37.1,35.0,29.56,North,9,0.0,2.0,92,0.12,,---,0.33,VWS V14.01,2013-03-25 19:10:00,
2013-03-25 15:15:00,37.1,34.7,29.56,SSW,201,0.0,3.0,91,0.13,,---,0.34,VWS V14.01,2013-03-25 19:15:00,
2013-03-25 15:20:00,37.1,34.7,29.56,NW,319,0.0,4.0,91,0.14,,---,0.35,VWS V14.01,2013-03-25 19:20:00,
2013-03-25 15:25:00,37.1,34.7,29.56,NW,317,1.0,5.0,91,0.15,,---,0.36,VWS V14.01,2013-03-25 19:25:00,
2013-03-25 15:30:00,37.1,34.7,29.56,WNW,291,0.0,5.0,91,0.15,,---,0.36,VWS V14.01,2013-03-25 19:30:00,
2013-03-25 15:35:00,37.0,34.6,29.56,West,274,0.0,2.0,91,0.10,,---,0.37,VWS V14.01,2013-03-25 19:35:00,
2013-03-25 15:40:00,37.3,34.9,29.56,WNW,290,0.0,2.0,91,0.11,,---,0.38,VWS V14.01,2013-03-25 19:40:00,
2013-03-25 15:45:00,37.4,35.0,29.57,NNW,338,0.0,2.0,91,0.12,,---,0.39,VWS V14.01,2013-03-25 19:45:00,
2013-03-25 15:50:00,37.4,35.0,29.57,West,277,0.0,2.0,91,0.12,,---,0.39,VWS V14.01,2013-03-25 19:50:00,
2013-03-25 15:55:00,37.5,35.1,29.57,NW,317,0.0,2.0,91,0.13,,---,0.40,VWS V14.01,2013-03-25 19:55:00,
2013-03-25 16:00:00,37.3,34.6,29.57,NW,308,0.0,5.0,90,0.13,,---,0.40,VWS V14.01,2013-03-25 20:00:00,
2013-03-25 16:05:00,37.3,34.9,29.57,NNE,12,0.0,2.0,91,0.09,,---,0.41,VWS V14.01,2013-03-25 20:05:00,
2013-03-25 16:10:00,37.3,34.9,29.57,West,261,0.0,2.0,91,0.09,,---,0.41,VWS V14.01,2013-03-25 20:10:00,
2013-03-25 16:15:00,37.2,34.5,29.57,WNW,295,2.0,3.0,90,0.09,,---,0.41,VWS V14.01,2013-03-25 20:15:00,
2013-03-25 16:20:00,37.3,34.9,29.58,NW,304,0.0,3.0,91,0.10,,---,0.42,VWS V14.01,2013-03-25 20:20:00,
2013-03-25 16:25:00,37.2,34.8,29.58,WNW,293,1.0,3.0,91,0.10,,---,0.42,VWS V14.01,2013-03-25 20:25:00,
2013-03-25 16:30:00,37.1,34.4,29.58,West,269,0.0,3.0,90,0.11,,---,0.43,VWS V14.01,2013-03-25 20:30:00,
2013-03-25 16:35:00,37.2,34.8,29.58,West,263,1.0,1.0,91,0.06,,---,0.43,VWS V14.01,2013-03-25 20:35:00,
2013-03-25 16:40:00,37.3,34.9,29.58,North,9,0.0,2.0,91,0.06,,---,0.43,VWS V14.01,2013-03-25 20:40:00,
2013-03-25 16:45:00,37.3,34.9,29.58,NNW,333,1.0,3.0,91,0.07,,---,0.44,VWS V14.01,2013-03-25 20:45:00,
2013-03-25 16:50:00,37.3,34.6,29.58,West,259,1.0,4.0,90,0.07,,---,0.44,VWS V14.01,2013-03-25 20:50:00,
2013-03-25 16:55:00,37.4,35.0,29.58,West,281,2.0,4.0,91,0.07,,---,0.44,VWS V14.01,2013-03-25 20:55:00,
2013-03-25 17:00:00,37.4,34.7,29.59,WNW,295,0.0,4.0,90,0.08,,---,0.45,VWS V14.01,2013-03-25 21:00:00,
2013-03-25 17:05:00,37.3,34.6,29.59,WNW,290,1.0,3.0,90,0.05,,---,0.45,VWS V14.01,2013-03-25 21:05:00,
2013-03-25 17:10:00,37.4,35.0,29.59,WSW,248,0.0,3.0,91,0.06,,---,0.46,VWS V14.01,2013-03-25 21:10:00,
2013-03-25 17:15:00,37.3,34.6,29.60,West,270,1.0,4.0,90,0.06,,---,0.46,VWS V14.01,2013-03-25 21:15:00,
2013-03-25 17:20:00,37.3,34.9,29.60,East,90,0.0,4.0,91,0.06,,---,0.46,VWS V14.01,2013-03-25 21:20:00,
2013-03-25 17:25:00,37.1,34.4,29.60,WSW,252,0.0,4.0,90,0.07,,---,0.47,VWS V14.01,2013-03-25 21:25:00,
2013-03-25 17:30:00,37.1,34.7,29.60,South,190,0.0,4.0,91,0.07,,---,0.47,VWS V14.01,2013-03-25 21:30:00,
2013-03-25 17:35:00,37.0,34.6,29.60,NNW,337,0.0,2.0,91,0.05,,---,0.48,VWS V14.01,2013-03-25 21:35:00,
2013-03-25 17:40:00,36.9,34.5,29.60,NNE,33,0.0,2.0,91,0.05,,---,0.48,VWS V14.01,2013-03-25 21:40:00,
2013-03-25 17:45:00,36.7,34.0,29.61,West,263,1.0,4.0,90,0.05,,---,0.48,VWS V14.01,2013-03-25 21:45:00,
2013-03-25 17:50:00,36.6,34.2,29.61,SSW,201,1.0,4.0,91,0.06,,---,0.49,VWS V14.01,2013-03-25 21:50:00,
2013-03-25 17:55:00,36.5,34.1,29.61,West,276,0.0,4.0,91,0.06,,---,0.49,VWS V14.01,2013-03-25 21:55:00,
2013-03-25 18:00:00,36.4,34.0,29.61,WNW,288,2.0,4.0,91,0.07,,---,0.50,VWS V14.01,2013-03-25 22:00:00,
2013-03-25 18:05:00,36.3,33.9,29.61,West,274,0.0,1.0,91,0.05,,---,0.50,VWS V14.01,2013-03-25 22:05:00,
2013-03-25 18:10:00,36.2,34.1,29.62,WNW,283,0.0,1.0,92,0.05,,---,0.50,VWS V14.01,2013-03-25 22:10:00,
2013-03-25 18:15:00,36.2,34.1,29.62,North,353,0.0,1.0,92,0.06,,---,0.51,VWS V14.01,2013-03-25 22:15:00,
2013-03-25 18:20:00,36.3,34.2,29.62,North,352,0.0,1.0,92,0.06,,---,0.51,VWS V14.01,2013-03-25 22:20:00,
2013-03-25 18:25:00,36.2,34.1,29.63,North,352,0.0,1.0,92,0.07,,---,0.52,VWS V14.01,2013-03-25 22:25:00,
2013-03-25 18:30:00,36.1,34.0,29.63,North,11,0.0,1.0,92,0.07,,---,0.52,VWS V14.01,2013-03-25 22:30:00,
2013-03-25 18:35:00,35.9,33.8,29.63,WSW,256,0.0,2.0,92,0.05,,---,0.52,VWS V14.01,2013-03-25 22:35:00,
2013-03-25 18:40:00,35.9,33.8,29.63,WSW,256,0.0,2.0,92,0.06,,---,0.53,VWS V14.01,2013-03-25 22:40:00,
2013-03-25 18:45:00,35.9,34.1,29.64,West,275,1.0,2.0,93,0.06,,---,0.53,VWS V14.01,2013-03-25 22:45:00,
2013-03-25 18:50:00,35.8,33.7,29.64,West,276,0.0,2.0,92,0.07,,---,0.54,VWS V14.01,2013-03-25 22:50:00,
2013-03-25 18:55:00,35.5,33.4,29.64,WSW,245,0.0,2.0,92,0.07,,---,0.54,VWS V14.01,2013-03-25 22:55:00,
2013-03-25 19:00:00,35.4,33.6,29.65,North,353,0.0,2.0,93,0.08,,---,0.55,VWS V14.01,2013-03-25 23:00:00,
2013-03-25 19:05:00,35.3,33.5,29.65,NNE,22,0.0,0.0,93,0.06,,---,0.56,VWS V14.01,2013-03-25 23:05:00,
2013-03-25 19:10:00,35.2,33.4,29.65,NNE,22,0.0,0.0,93,0.06,,---,0.56,VWS V14.01,2013-03-25 23:10:00,
2013-03-25 19:15:00,35.1,33.3,29.65,NNE,21,0.0,1.0,93,0.06,,---,0.56,VWS V14.01,2013-03-25 23:15:00,
2013-03-25 19:20:00,35.0,33.2,29.65,North,6,0.0,2.0,93,0.06,,---,0.56,VWS V14.01,2013-03-25 23:20:00,
2013-03-25 19:25:00,35.1,33.3,29.66,West,267,0.0,2.0,93,0.07,,---,0.57,VWS V14.01,2013-03-25 23:25:00,
2013-03-25 19:30:00,35.1,33.5,29.66,West,266,0.0,2.0,94,0.07,,---,0.57,VWS V14.01,2013-03-25 23:30:00,
2013-03-25 19:35:00,35.1,33.5,29.66,West,266,0.0,1.0,94,0.05,,---,0.57,VWS V14.01,2013-03-25 23:35:00,
2013-03-25 19:40:00,35.1,33.5,29.67,West,277,0.0,1.0,94,0.05,,---,0.57,VWS V14.01,2013-03-25 23:40:00,
2013-03-25 19:45:00,35.1,33.5,29.67,West,277,0.0,1.0,94,0.06,,---,0.58,VWS V14.01,2013-03-25 23:45:00,
2013-03-25 19:50:00,35.1,33.5,29.67,West,277,0.0,1.0,94,0.06,,---,0.58,VWS V14.01,2013-03-25 23:50:00,
2013-03-25 19:55:00,35.1,33.5,29.67,West,280,0.0,1.0,94,0.06,,---,0.58,VWS V14.01,2013-03-25 23:55:00,
2013-03-25 20:00:00,35.1,33.5,29.67,West,280,0.0,1.0,94,0.07,,---,0.59,VWS V14.01,2013-03-26 00:00:00,
2013-03-25 20:05:00,35.1,33.5,29.68,West,280,0.0,1.0,94,0.04,,---,0.59,VWS V14.01,2013-03-26 00:05:00,
2013-03-25 20:10:00,35.1,33.5,29.68,West,275,0.0,1.0,94,0.04,,---,0.59,VWS V14.01,2013-03-26 00:10:00,
2013-03-25 20:15:00,35.0,33.5,29.68,West,276,0.0,1.0,94,0.04,,---,0.59,VWS V14.01,2013-03-26 00:15:00,
2013-03-25 20:20:00,35.0,33.5,29.68,WSW,252,0.0,1.0,94,0.05,,---,0.60,VWS V14.01,2013-03-26 00:20:00,
2013-03-25 20:25:00,35.0,33.5,29.68,WSW,250,0.0,1.0,94,0.05,,---,0.60,VWS V14.01,2013-03-26 00:25:00,
2013-03-25 20:30:00,35.1,33.5,29.68,WSW,250,0.0,1.0,94,0.05,,---,0.60,VWS V14.01,2013-03-26 00:30:00,
2013-03-25 20:35:00,35.1,33.8,29.69,WSW,251,0.0,0.0,95,0.03,,---,0.60,VWS V14.01,2013-03-26 00:35:00,
2013-03-25 20:40:00,35.1,33.8,29.69,WSW,248,0.0,0.0,95,0.03,,---,0.60,VWS V14.01,2013-03-26 00:40:00,
2013-03-25 20:45:00,35.1,33.8,29.69,WSW,248,0.0,0.0,95,0.04,,---,0.61,VWS V14.01,2013-03-26 00:45:00,
2013-03-25 20:49:00,35.1,33.8,29.69,WSW,248,0.0,1.0,95,0.04,,---,0.61,VWS V14.01,2013-03-26 00:49:00,
2013-03-25 20:55:00,35.1,33.8,29.69,WSW,248,0.0,1.0,95,0.04,,---,0.61,VWS V14.01,2013-03-26 00:55:00,
2013-03-25 21:00:00,35.2,33.9,29.70,WSW,248,0.0,1.0,95,0.04,,---,0.61,VWS V14.01,2013-03-26 01:00:00,
2013-03-25 21:05:00,35.2,33.9,29.69,WSW,248,0.0,0.0,95,0.02,,---,0.61,VWS V14.01,2013-03-26 01:05:00,
2013-03-25 21:10:00,35.2,33.9,29.70,NW,312,0.0,1.0,95,0.02,,---,0.61,VWS V14.01,2013-03-26 01:10:00,
2013-03-25 21:15:00,35.2,33.9,29.70,SW,235,0.0,1.0,95,0.02,,---,0.61,VWS V14.01,2013-03-26 01:15:00,
2013-03-25 21:20:00,35.2,33.9,29.70,West,271,0.0,1.0,95,0.03,,---,0.62,VWS V14.01,2013-03-26 01:20:00,
2013-03-25 21:25:00,35.2,33.9,29.70,West,271,0.0,1.0,95,0.03,,---,0.62,VWS V14.01,2013-03-26 01:25:00,
2013-03-25 21:30:00,35.2,33.9,29.71,WNW,283,0.0,1.0,95,0.03,,---,0.62,VWS V14.01,2013-03-26 01:30:00,
2013-03-25 21:35:00,35.2,33.9,29.71,WNW,283,0.0,0.0,95,0.02,,---,0.62,VWS V14.01,2013-03-26 01:35:00,
2013-03-25 21:40:00,35.2,33.9,29.71,WSW,245,0.0,1.0,95,0.02,,---,0.62,VWS V14.01,2013-03-26 01:40:00,
2013-03-25 21:45:00,35.2,33.9,29.71,WSW,245,0.0,1.0,95,0.02,,---,0.62,VWS V14.01,2013-03-26 01:45:00,
2013-03-25 21:50:00,35.2,33.9,29.71,WSW,245,0.0,1.0,95,0.02,,---,0.62,VWS V14.01,2013-03-26 01:50:00,
2013-03-25 21:55:00,35.2,33.9,29.72,WSW,245,0.0,1.0,95,0.02,,---,0.62,VWS V14.01,2013-03-26 01:55:00,
2013-03-25 22:00:00,35.2,33.9,29.72,WSW,251,0.0,1.0,95,0.02,,---,0.62,VWS V14.01,2013-03-26 02:00:00,
2013-03-25 22:05:00,35.2,33.9,29.72,WSW,252,0.0,1.0,95,0.01,,---,0.62,VWS V14.01,2013-03-26 02:05:00,
2013-03-25 22:10:00,35.2,33.9,29.72,WSW,252,0.0,1.0,95,0.01,,---,0.62,VWS V14.01,2013-03-26 02:10:00,
2013-03-25 22:14:00,35.1,33.8,29.72,West,266,0.0,1.0,95,0.02,,---,0.63,VWS V14.01,2013-03-26 02:14:00,
2013-03-25 22:20:00,35.1,33.8,29.72,West,267,0.0,1.0,95,0.02,,---,0.63,VWS V14.01,2013-03-26 02:20:00,
2013-03-25 22:25:00,35.1,33.8,29.72,West,267,0.0,1.0,95,0.02,,---,0.63,VWS V14.01,2013-03-26 02:25:00,
2013-03-25 22:30:00,35.0,33.7,29.72,SSW,212,0.0,1.0,95,0.02,,---,0.63,VWS V14.01,2013-03-26 02:30:00,
2013-03-25 22:35:00,35.0,33.7,29.72,WNW,288,0.0,0.0,95,0.01,,---,0.63,VWS V14.01,2013-03-26 02:35:00,
2013-03-25 22:40:00,35.0,33.7,29.72,WNW,288,0.0,0.0,95,0.01,,---,0.63,VWS V14.01,2013-03-26 02:40:00,
2013-03-25 22:45:00,35.0,33.7,29.72,WNW,287,0.0,0.0,95,0.01,,---,0.63,VWS V14.01,2013-03-26 02:45:00,
2013-03-25 22:50:00,34.9,33.6,29.72,North,358,0.0,1.0,95,0.01,,---,0.63,VWS V14.01,2013-03-26 02:50:00,
2013-03-25 22:55:00,34.9,33.6,29.72,North,358,0.0,1.0,95,0.01,,---,0.63,VWS V14.01,2013-03-26 02:55:00,
2013-03-25 23:00:00,34.8,33.5,29.72,North,358,0.0,1.0,95,0.01,,---,0.63,VWS V14.01,2013-03-26 03:00:00,
2013-03-25 23:05:00,34.7,33.4,29.72,North,359,0.0,0.0,95,0.01,,---,0.63,VWS V14.01,2013-03-26 03:05:00,
2013-03-25 23:10:00,34.6,33.3,29.72,West,278,0.0,1.0,95,0.01,,---,0.63,VWS V14.01,2013-03-26 03:10:00,
2013-03-25 23:14:00,34.4,33.1,29.73,West,278,0.0,1.0,95,0.01,,---,0.63,VWS V14.01,2013-03-26 03:14:00,
2013-03-25 23:19:00,34.2,32.9,29.73,West,278,0.0,1.0,95,0.01,,---,0.63,VWS V14.01,2013-03-26 03:19:00,
2013-03-25 23:24:00,34.0,32.7,29.73,West,278,0.0,1.0,95,0.01,,---,0.63,VWS V14.01,2013-03-26 03:24:00,
2013-03-25 23:29:00,33.9,32.6,29.73,West,278,0.0,1.0,95,0.01,,---,0.63,VWS V14.01,2013-03-26 03:29:00,
2013-03-25 23:34:00,33.8,32.5,29.73,West,278,0.0,0.0,95,0.00,,---,0.63,VWS V14.01,2013-03-26 03:34:00,
2013-03-25 23:39:00,33.8,32.5,29.73,West,278,0.0,1.0,95,0.00,,---,0.63,VWS V14.01,2013-03-26 03:39:00,
2013-03-25 23:44:00,33.7,32.4,29.73,West,278,0.0,1.0,95,0.00,,---,0.63,VWS V14.01,2013-03-26 03:44:00,
2013-03-25 23:49:00,33.7,32.4,29.73,West,278,0.0,1.0,95,0.00,,---,0.63,VWS V14.01,2013-03-26 03:49:00,
2013-03-25 23:54:00,33.8,32.5,29.73,West,278,0.0,1.0,95,0.00,,---,0.63,VWS V14.01,2013-03-26 03:54:00,
2013-03-25 23:59:00,33.9,32.6,29.73,West,278,0.0,1.0,95,0.00,,---,0.63,VWS V14.01,2013-03-26 03:59:00,